Location: Unspecified
(40.7945°N, 111.1337°W)
Time: 03:04:58
(UTC-06:00)

Transit 2A - All Passes

Search period start: 19 June 2019 00:00
Search period end: 29 June 2019 00:00
Orbit: 593 x 966 km, 66.7° (Epoch: 18 June)

Date Brightness Start Highest point End Pass type
(mag) Time Alt. Az. Time Alt. Az. Time Alt. Az.
19 Jun - 01:05:47 10° SSE 01:10:53 26° ESE 01:16:01 10° NE visible
19 Jun - 02:47:33 10° SW 02:53:48 57° NW 03:00:01 10° NNE visible
19 Jun - 04:35:14 10° WNW 04:38:24 14° NW 04:41:32 10° N visible
19 Jun - 09:53:17 10° N 09:57:33 21° NE 10:01:30 10° E daylight
19 Jun - 11:35:52 10° NW 11:41:22 65° WSW 11:46:16 10° SSE daylight
20 Jun - 00:32:53 10° SE 00:37:01 18° ESE 00:41:10 10° ENE visible
20 Jun - 02:13:16 10° SSW 02:19:37 78° WNW 02:25:58 10° NNE visible
20 Jun - 03:59:42 10° W 04:03:53 18° NW 04:08:00 10° N visible
20 Jun - 09:19:37 10° N 09:23:05 16° NE 09:26:21 10° ENE daylight
20 Jun - 11:01:42 10° NNW 11:07:18 85° ENE 11:12:16 10° SSE daylight
20 Jun - 12:48:00 10° W 12:49:27 11° W 12:50:52 10° WSW daylight
21 Jun - 00:00:50 10° ESE 00:03:12 12° E 00:05:34 10° ENE visible
21 Jun - 01:39:10 10° SSW 01:45:30 78° ESE 01:51:50 10° NNE visible
21 Jun - 03:24:29 10° W 03:29:26 23° NW 03:34:18 10° N visible
21 Jun - 08:46:16 10° N 08:48:33 12° NNE 08:50:45 10° ENE daylight
21 Jun - 10:27:37 10° NNW 10:33:09 59° ENE 10:38:04 10° SE daylight
21 Jun - 12:12:14 10° WNW 12:15:40 18° WSW 12:18:54 10° SW daylight
22 Jun - 01:05:17 10° S 01:11:27 56° ESE 01:17:37 10° NE visible
22 Jun - 02:49:32 10° WSW 02:55:03 30° NW 03:00:29 10° NNE visible
22 Jun - 09:53:38 10° NNW 09:58:55 41° NE 10:03:40 10° ESE daylight
22 Jun - 11:37:24 10° NW 11:41:50 26° WSW 11:45:53 10° SSW daylight
23 Jun - 00:31:37 10° S 00:37:27 40° ESE 00:43:17 10° NE visible
23 Jun - 02:14:48 10° WSW 02:20:44 40° NW 02:26:36 10° NNE visible
23 Jun - 04:05:12 10° NW 04:05:45 10° NNW 04:06:19 10° NNW visible
23 Jun - 09:19:43 10° NNW 09:24:37 30° NE 09:29:04 10° ESE daylight
23 Jun - 11:02:54 10° NW 11:07:56 39° WSW 11:12:28 10° S daylight
23 Jun - 23:58:14 10° SSE 00:03:30 28° ESE 00:08:46 10° NE visible
24 Jun - 01:40:16 10° SW 01:46:29 53° NW 01:52:37 10° NNE visible
24 Jun - 03:28:19 10° WNW 03:31:09 13° NW 03:33:57 10° N visible
24 Jun - 08:45:54 10° N 08:50:14 22° NE 08:54:14 10° E daylight
24 Jun - 10:28:35 10° NW 10:33:58 59° WSW 10:38:45 10° SSE daylight
24 Jun - 23:25:13 10° SSE 23:29:37 20° ESE 23:34:01 10° ENE visible
25 Jun - 01:05:57 10° SW 01:12:18 73° WNW 01:18:35 10° NNE visible
25 Jun - 02:52:39 10° WNW 02:56:37 17° NW 03:00:31 10° N visible
25 Jun - 08:12:13 10° N 08:15:47 17° NE 08:19:07 10° E daylight
25 Jun - 09:54:22 10° NNW 09:59:54 88° WSW 10:04:48 10° SSE daylight
25 Jun - 22:52:53 10° SE 22:55:47 13° ESE 22:58:41 10° ENE visible
26 Jun - 00:31:48 10° SSW 00:38:10 84° ESE 00:44:29 10° NNE visible
26 Jun - 02:17:22 10° W 02:22:09 22° NW 02:26:51 10° N visible
26 Jun - 07:38:49 10° N 07:41:16 13° NE 07:43:37 10° ENE daylight
26 Jun - 09:20:17 10° NNW 09:25:46 64° ENE 09:30:39 10° SE daylight
26 Jun - 11:05:10 10° WNW 11:08:12 16° WSW 11:11:05 10° SW daylight
26 Jun - 23:57:52 10° SSW 00:04:05 61° ESE 00:10:17 10° NE visible
27 Jun - 01:42:22 10° WSW 01:47:46 28° NW 01:53:03 10° N visible
27 Jun - 08:46:16 10° NNW 08:51:34 44° NE 08:56:17 10° SE daylight
27 Jun - 10:30:13 10° NW 10:34:23 24° WSW 10:38:14 10° SSW daylight
27 Jun - 23:24:08 10° S 23:30:05 43° ESE 23:35:59 10° NE visible
28 Jun - 01:07:35 10° WSW 01:13:26 37° NW 01:19:10 10° NNE visible
28 Jun - 08:12:21 10° NNW 08:17:16 31° NE 08:21:43 10° ESE daylight
28 Jun - 09:55:39 10° NW 10:00:29 35° WSW 10:04:52 10° S daylight
28 Jun - 22:50:41 10° SSE 22:56:07 31° ESE 23:01:31 10° NE visible
